Terug naar catalogus

CZ-4B DEB

ActiefLEO
NORAD 48622·DEBRIS·🇨🇳 China

Gelanceerd May 19, 2021 vanaf Jiuquan Satellite Launch Center

Loading…

Volgende Passages (komende 24 uur)

TLE

VersSource: Space-Track

Epoch: Sep 14, 2026, 08:48 UTC

1 48622U 21043B   26257.36717999  .00000015  00000-0  82169-4 0  9991
2 48622  65.9002  33.2263 0024164 175.1738 184.9570 13.87591899269656

Volg CZ-4B DEB in realtime met AllMySat

Download on the App Store